Location: �chemir�
(47.5500°N, 0.1667°W)
Time: 15:53:12
(UTC+02:00)

ISS - Pass Details

Date: 21 May 2021
Orbit: 419 x 422 km, 51.6° (Epoch: 25 June)

Event Time Altitude Azimuth Distance (km) Brightness Sun altitude
Rises 01:59:00 0° 294° (WNW) 2,375 0.4 -22.3°
Reaches altitude 10° 02:01:06 10° 293° (WNW) 1,509 -0.7 -22.3°
Enters shadow 02:02:46 27° 291° (WNW) 859 -2.1 -22.2°
